Cody, WY

8:29 AM MDT on June 24, 2017 (GMT -0600)
Yellowstone Regional

Weather History for KCOD - November, 2013

Change the Weather History Date:

Sunday, November 3, 2013

  Actual Average Record
Temperature  
Mean Temperature 38 °F -  
Max Temperature 44 °F 49 °F 105 °F (1997)
Min Temperature 32 °F 27 °F -8 °F (1935)
Degree Days  
Heating Degree Days 27    
Moisture  
Dew Point 21 °F    
Average Humidity 56    
Maximum Humidity 93    
Minimum Humidity 31    
Precipitation  
Precipitation 0.00 in - - ()
Sea Level Pressure  
Sea Level Pressure 29.69 in    
Wind  
Wind Speed 9 mph (NW)    
Max Wind Speed 18 mph    
Max Gust Speed 25 mph    
Visibility 10 miles    
Events      
Averages and records for this station are not official NWS values.
T = Trace of Precipitation, MM = Missing Value Source: NWS Daily Summary

Daily Weather History Graph

Daily Weather History Graph

Search for Another Location

Airport or City:

Trip Planner

Search our weather history database for the weather conditions in past years. The results will help you decide how hot, cold, wet, or windy it might be!

Date:

Astronomy

Nov. 03, 2013 Rise Set
Actual Time 6:56 AM MST 5:01 PM MST
Civil Twilight 6:26 AM MST 5:32 PM MST
Nautical Twilight 5:51 AM MST 6:06 PM MST
Astronomical Twilight 5:17 AM MST 6:40 PM MST
Moon 7:04 AM MST (11/3) 5:17 PM MST (11/3)
Length of Visible Light 11h 06m
Length of Day
10h 05m
New Moon, 0% of the Moon is Illuminated
Nov 3
New Moon
Nov 9
First Quarter
Nov 17
Full
Nov 25
Last Quarter
Dec 2
New

Hourly Weather History & Observations

Time (MST) Temp. Windchill Dew Point Humidity Pressure Visibility Wind Dir Wind Speed Gust Speed Precip Events Conditions
12:15 AM 44.6 °F 40.7 °F 23.0 °F 43% 29.60 in 10.0 mi SSE 6.9 mph - N/A   Clear
12:35 AM 44.6 °F 40.2 °F 24.8 °F 46% 29.59 in 10.0 mi SSE 8.1 mph - N/A   Clear
12:55 AM 44.6 °F 39.7 °F 26.6 °F 49% 29.58 in 10.0 mi SSE 9.2 mph - N/A   Clear
1:15 AM 42.8 °F 37.0 °F 26.6 °F 53% 29.58 in 10.0 mi SSE 10.4 mph - N/A   Clear
1:55 AM 41.0 °F 35.2 °F 26.6 °F 57% 29.59 in 10.0 mi SSE 9.2 mph - N/A   Clear
1:15 AM 39.2 °F 35.0 °F 26.6 °F 61% 29.58 in 10.0 mi SSW 5.8 mph - N/A   Clear
1:35 AM 35.6 °F 29.9 °F 24.8 °F 65% 29.58 in 10.0 mi South 6.9 mph - N/A   Clear
1:55 AM 33.8 °F 29.6 °F 23.0 °F 65% 29.59 in 10.0 mi NW 4.6 mph - N/A   Clear
2:15 AM 33.8 °F 26.4 °F 24.8 °F 70% 29.61 in 10.0 mi NNE 9.2 mph - N/A   Clear
2:35 AM 35.6 °F 29.9 °F 30.2 °F 81% 29.61 in 10.0 mi North 6.9 mph - N/A   Clear
3:15 AM 35.6 °F 26.6 °F 30.2 °F 81% 29.62 in 10.0 mi North 13.8 mph - N/A   Scattered Clouds
3:35 AM 35.6 °F 28.0 °F 30.2 °F 81% 29.62 in 10.0 mi North 10.4 mph - N/A   Mostly Cloudy
3:55 AM 35.6 °F 31.7 °F 30.2 °F 81% 29.63 in 10.0 mi NW 4.6 mph - N/A   Overcast
4:15 AM 35.6 °F 29.9 °F 30.2 °F 81% 29.62 in 10.0 mi NE 6.9 mph - N/A   Overcast
4:35 AM 35.6 °F 29.9 °F 32.0 °F 87% 29.62 in 10.0 mi NE 6.9 mph - N/A   Overcast
4:55 AM 35.6 °F 29.2 °F 32.0 °F 87% 29.61 in 10.0 mi NNE 8.1 mph - N/A   Overcast
5:15 AM 33.8 °F 26.4 °F 32.0 °F 93% 29.62 in 10.0 mi North 9.2 mph - N/A   Mostly Cloudy
5:35 AM 33.8 °F 27.0 °F 32.0 °F 93% 29.62 in 10.0 mi North 8.1 mph - N/A   Overcast
5:55 AM 33.8 °F 27.7 °F 30.2 °F 87% 29.62 in 10.0 mi North 6.9 mph - N/A   Mostly Cloudy
6:15 AM 33.8 °F 27.7 °F 30.2 °F 87% 29.63 in 10.0 mi NNE 6.9 mph - N/A   Mostly Cloudy
6:35 AM 33.8 °F 28.6 °F 30.2 °F 87% 29.64 in 10.0 mi North 5.8 mph - N/A   Overcast
6:55 AM 33.8 °F 27.7 °F 30.2 °F 87% 29.63 in 10.0 mi North 6.9 mph - N/A   Mostly Cloudy
7:15 AM 33.8 °F 27.7 °F 30.2 °F 87% 29.64 in 10.0 mi North 6.9 mph - N/A   Mostly Cloudy
7:35 AM 33.8 °F 29.6 °F 30.2 °F 87% 29.65 in 10.0 mi North 4.6 mph - N/A   Overcast
7:55 AM 35.6 °F 29.2 °F 28.4 °F 75% 29.65 in 10.0 mi NNE 8.1 mph - N/A   Mostly Cloudy
8:15 AM 35.6 °F 29.2 °F 28.4 °F 75% 29.65 in 10.0 mi NE 8.1 mph - N/A   Partly Cloudy
8:35 AM 35.6 °F 28.0 °F 26.6 °F 70% 29.66 in 10.0 mi NNE 10.4 mph - N/A   Clear
8:55 AM 37.4 °F 30.3 °F 28.4 °F 70% 29.66 in 10.0 mi NNE 10.4 mph - N/A   Clear
9:15 AM 37.4 °F 29.8 °F 26.6 °F 65% 29.67 in 10.0 mi NNE 11.5 mph - N/A   Partly Cloudy
9:55 AM 37.4 °F 30.8 °F 26.6 °F 65% 29.67 in 10.0 mi NE 9.2 mph - N/A   Partly Cloudy
10:15 AM 35.6 °F 29.9 °F 26.6 °F 70% 29.67 in 10.0 mi NE 6.9 mph - N/A   Partly Cloudy
10:35 AM 37.4 °F 32.8 °F 28.4 °F 70% 29.67 in 10.0 mi ENE 5.8 mph - N/A   Mostly Cloudy
10:55 AM 39.2 °F 35.0 °F 26.6 °F 61% 29.67 in 10.0 mi NE 5.8 mph - N/A   Overcast
11:15 AM 42.8 °F 38.6 °F 21.2 °F 42% 29.67 in 10.0 mi West 6.9 mph 21.9 mph N/A   Overcast
11:35 AM 39.2 °F 33.0 °F 19.4 °F 45% 29.68 in 10.0 mi WNW 9.2 mph - N/A   Mostly Cloudy
11:55 AM 42.8 °F 34.5 °F 19.4 °F 39% 29.68 in 10.0 mi NW 18.4 mph 21.9 mph N/A   Mostly Cloudy
12:15 PM 42.8 °F 34.8 °F 17.6 °F 36% 29.68 in 10.0 mi NNW 17.3 mph 24.2 mph N/A   Mostly Cloudy
12:35 PM 41.0 °F 32.8 °F 17.6 °F 39% 29.67 in 10.0 mi NNW 16.1 mph 24.2 mph N/A   Partly Cloudy
12:55 PM 39.2 °F 30.5 °F 15.8 °F 39% 29.67 in 10.0 mi North 16.1 mph - N/A   Mostly Cloudy
1:15 PM 39.2 °F 33.6 °F 15.8 °F 39% 29.67 in 10.0 mi NNW 8.1 mph - N/A   Overcast
1:35 PM 41.0 °F 33.5 °F 15.8 °F 36% 29.68 in 10.0 mi NNW 13.8 mph 18.4 mph N/A   Overcast
1:55 PM 42.8 °F 36.6 °F 15.8 °F 34% 29.68 in 10.0 mi WNW 11.5 mph - N/A   Overcast
2:15 PM 41.0 °F 33.1 °F 14.0 °F 33% 29.69 in 10.0 mi WNW 15.0 mph 20.7 mph N/A   Overcast
2:35 PM 39.2 °F 32.5 °F 12.2 °F 33% 29.70 in 10.0 mi WNW 10.4 mph 17.3 mph N/A   Overcast
2:55 PM 39.2 °F 32.0 °F 12.2 °F 33% 29.71 in 10.0 mi WSW 11.5 mph 16.1 mph N/A   Overcast
3:15 PM 39.2 °F 31.2 °F 12.2 °F 33% 29.72 in 10.0 mi NW 13.8 mph 19.6 mph N/A   Overcast
3:35 PM 39.2 °F 31.6 °F 10.4 °F 31% 29.72 in 10.0 mi WNW 12.7 mph 21.9 mph N/A   Mostly Cloudy
3:55 PM 39.2 °F 31.6 °F 10.4 °F 31% 29.72 in 10.0 mi WNW 12.7 mph 20.7 mph N/A   Scattered Clouds
4:15 PM 39.2 °F 31.6 °F 12.2 °F 33% 29.73 in 10.0 mi West 12.7 mph 19.6 mph N/A   Partly Cloudy
4:35 PM 37.4 °F 30.8 °F 12.2 °F 36% 29.75 in 10.0 mi West 9.2 mph 17.3 mph N/A   Scattered Clouds
4:55 PM 33.8 °F 26.4 °F 15.8 °F 48% 29.77 in 10.0 mi WNW 9.2 mph 18.4 mph N/A   Clear
5:15 PM 33.8 °F 24.3 °F 15.8 °F 48% 29.77 in 10.0 mi West 13.8 mph 18.4 mph N/A   Clear
5:35 PM 33.8 °F 25.8 °F 15.8 °F 48% 29.78 in 10.0 mi WNW 10.4 mph - N/A   Clear
5:55 PM 33.8 °F 25.3 °F 15.8 °F 48% 29.78 in 10.0 mi West 11.5 mph 18.4 mph N/A   Clear
6:15 PM 32.0 °F 23.0 °F 12.2 °F 44% 29.78 in 10.0 mi West 11.5 mph - N/A   Clear
6:35 PM 32.0 °F 24.2 °F 12.2 °F 44% 29.79 in 10.0 mi West 9.2 mph - N/A   Clear
6:55 PM 32.0 °F 24.8 °F 12.2 °F 44% 29.79 in 10.0 mi SW 8.1 mph - N/A   Clear
7:15 PM 33.8 °F 25.3 °F 12.2 °F 41% 29.80 in 10.0 mi West 11.5 mph 23.0 mph N/A   Clear
7:35 PM 33.8 °F 26.4 °F 12.2 °F 41% 29.81 in 10.0 mi WNW 9.2 mph 18.4 mph N/A   Clear
7:55 PM 32.0 °F 24.2 °F 10.4 °F 41% 29.82 in 10.0 mi West 9.2 mph - N/A   Clear
8:35 PM 32.0 °F 23.6 °F 10.4 °F 41% 29.83 in 10.0 mi West 10.4 mph - N/A   Mostly Cloudy
8:55 PM 32.0 °F 27.5 °F 10.4 °F 41% 29.84 in 10.0 mi West 4.6 mph - N/A   Partly Cloudy
9:15 PM 32.0 °F 27.5 °F 12.2 °F 44% 29.84 in 10.0 mi West 4.6 mph - N/A   Scattered Clouds
9:35 PM 32.0 °F 26.4 °F 12.2 °F 44% 29.85 in 10.0 mi West 5.8 mph - N/A   Mostly Cloudy
9:55 PM 32.0 °F 24.2 °F 12.2 °F 44% 29.85 in 10.0 mi West 9.2 mph 18.4 mph N/A   Overcast
10:15 PM 32.0 °F 22.1 °F 12.2 °F 44% 29.85 in 10.0 mi West 13.8 mph 25.3 mph N/A   Overcast
10:35 PM 32.0 °F 23.0 °F 12.2 °F 44% 29.85 in 10.0 mi West 11.5 mph 20.7 mph N/A   Mostly Cloudy
10:55 PM 32.0 °F 21.2 °F 12.2 °F 44% 29.86 in 10.0 mi WSW 16.1 mph 23.0 mph N/A   Mostly Cloudy